Showing default

GXIBA-1, 67685

Orbit data source: Space-Track

GXIBA-1, 67685 is a payload satellite owned by UPAEP (MX) in LEO that was delivered to the ISS. Payload-class satellites include a variety of spacecraft equipped with specific instruments for various scientific and technological missions. These include communications satellites like Starlink; space stations such as the ISS; scientific satellites like the Hubble; Earth observation satellites from companies like Planet Labs, Umbra, and HawkEye 360; GPS; miniature CubeSats for education and research; and military/defense satellites.

Loading next visibility...
Identifier
67685, 1998-067YB
Orbit
LEO
Country
Flag of MXMX / MEX
Related business
Manufacturer
UPAEP
Mission
Operational spacecraft
Bus & Motor
CUBESAT 1U, Unknown motor
Mass
1 kg wet, 1 kg dry
Launch date (UTC)
1998-11-20 (28 years ago)
Launch vehicle
H3-24W
Launch site
Tyuratam Missile And Space Complex (TTMTR)
Object type
Payload
Rocket body
Debris
Shape & HBR
Unknown shape, 0.1 m
Radar Cross Section
Medium (>0.1 m² and <1 m²)

Expand to show TLE details & history
Last TLE update: 18 hours ago

TLE from 18 hours ago
0 GXIBA-1
1 67685U 98067YB  26165.66462707  .00052183  00000-0  60209-3 0  9999
2 67685  51.6300 306.4652 0010633 202.3440 157.7092 15.61334881 19891
Epoch: 2026-06-14T15:57Z
TLE epoch observation values (Epoch: 2026-06-14T15:57:03.778Z)
Latitude
-0.00002°
Longitude
164.23733°
Altitude
391.198 km
Speed
7.673 km/s
True Right ascension
20h 25m 51s
True Declination
0° 00' 00"
Sunlit
Object was in full shadow at epoch
Visualization orbit readout
Latitude
Unknown
Longitude
Unknown
Altitude
Unknown
Speed
Unknown
Apparent Right ascension
Unknown
Apparent Declination
Unknown
Sunlit
N/A
Visualization observer readout
Local Sidereal Time
20:32:35
Azimuth
Unknown
Elevation
Unknown
Doppler factor
Unknown
Orbital elements
Apogee altitude
391.503 km
Perigee altitude
377.122 km
Semi-major axis
6,762.449 km
Eccentricity
0.00106
Inclination
51.63°
RAAN
306.4652°
Arg. of periapsis
202.344°
True anomaly
157.75536°
Mean anomaly
157.7092°
Eccentric anomaly
157.73229°
Mean motion
3.9029 °/min
Orbital period
92.24 mins
BSTAR
0.00060209
Loading maneuver chart data...
Computing Atmospheric mass density...
Loading historical data...
Loading historical data...
Loading historical data...
Loading historical data...
Loading historical data...
Loading historical data...
Loading historical data...

Documentation

Showing up to 5 results
|